BAW4424 EGLL-EDDL

Flight info

Callsign BAW4424
Flight time 0h 53m
Altitude 33000
Route BPK Q295 BRAIN M197 REDFA DCT TACHA DCT PAM P62 PISAP PISAP1A
Aircraft A20N/M-SDE2E3FGHIRWXY/LB1

Departure

Time 2026-05-04 22:11
Airport London Heathrow Airport (EGLL)

Arrival

Time 2026-05-04 23:05
Airport Düsseldorf Airport (EDDL)
Time Latitude Longitude Altitude Speed Heading
2026-05-04 21:41 51.47130 -0.48591 88 ft 0 kts 268°
2026-05-04 21:53 51.47130 -0.48587 88 ft 2 kts 268°
2026-05-04 21:54 51.47131 -0.48570 90 ft 2 kts 268°
2026-05-04 21:54 51.47131 -0.48553 87 ft 2 kts 268°
2026-05-04 21:54 51.47131 -0.48536 87 ft 2 kts 268°
2026-05-04 21:54 51.47132 -0.48519 87 ft 2 kts 264°
2026-05-04 21:55 51.47134 -0.48502 89 ft 2 kts 240°
2026-05-04 21:55 51.47140 -0.48488 91 ft 2 kts 216°
2026-05-04 21:55 51.47149 -0.48479 90 ft 2 kts 192°
2026-05-04 21:55 51.47156 -0.48477 89 ft 1 kts 176°
2026-05-04 22:02 51.47155 -0.48477 89 ft 1 kts 176°
2026-05-04 22:02 51.47127 -0.48474 89 ft 7 kts 177°
2026-05-04 22:02 51.47058 -0.48473 91 ft 13 kts 180°
2026-05-04 22:03 51.46971 -0.48473 89 ft 12 kts 179°
2026-05-04 22:03 51.46878 -0.48468 92 ft 15 kts 179°
2026-05-04 22:03 51.46827 -0.48470 92 ft 0 kts 181°
2026-05-04 22:05 51.46824 -0.48470 92 ft 2 kts 181°
2026-05-04 22:05 51.46789 -0.48470 92 ft 8 kts 180°
2026-05-04 22:05 51.46740 -0.48526 92 ft 11 kts 258°
2026-05-04 22:05 51.46736 -0.48683 92 ft 15 kts 262°
2026-05-04 22:06 51.46649 -0.48748 92 ft 15 kts 180°
2026-05-04 22:06 51.46600 -0.48765 92 ft 0 kts 199°
2026-05-04 22:10 51.46594 -0.48769 91 ft 4 kts 199°
2026-05-04 22:10 51.46545 -0.48787 92 ft 10 kts 180°
2026-05-04 22:10 51.46485 -0.48722 93 ft 12 kts 114°
2026-05-04 22:10 51.46477 -0.48592 93 ft 0 kts 89°
2026-05-04 22:11 51.46477 -0.48590 93 ft 5 kts 89°
2026-05-04 22:11 51.46480 -0.47905 90 ft 117 kts 90°
2026-05-04 22:11 51.46487 -0.46171 368 ft 175 kts 90°
2026-05-04 22:11 51.46495 -0.44142 1383 ft 189 kts 89°
2026-05-04 22:12 51.46514 -0.42002 2511 ft 201 kts 87°
2026-05-04 22:12 51.46950 -0.39767 3418 ft 212 kts 59°
2026-05-04 22:12 51.47828 -0.37762 4100 ft 232 kts 51°
2026-05-04 22:12 51.48897 -0.35670 5000 ft 256 kts 49°
2026-05-04 22:13 51.50099 -0.33388 5165 ft 271 kts 49°
2026-05-04 22:13 51.51295 -0.31031 5279 ft 273 kts 52°
2026-05-04 22:13 51.52300 -0.28439 5388 ft 274 kts 64°
2026-05-04 22:13 51.53068 -0.25667 5498 ft 274 kts 66°
2026-05-04 22:14 51.53782 -0.22817 5798 ft 275 kts 69°
2026-05-04 22:14 51.54477 -0.19934 6169 ft 276 kts 63°
2026-05-04 22:14 51.55663 -0.17568 6546 ft 277 kts 36°
2026-05-04 22:14 51.57407 -0.16300 6926 ft 277 kts
2026-05-04 22:15 51.59330 -0.16158 7308 ft 277 kts 358°
2026-05-04 22:15 51.61278 -0.16140 7683 ft 279 kts
2026-05-04 22:15 51.63193 -0.15826 8047 ft 281 kts
2026-05-04 22:15 51.65120 -0.15216 8435 ft 283 kts 12°
2026-05-04 22:16 51.67040 -0.14423 8807 ft 285 kts 14°
2026-05-04 22:16 51.68954 -0.13546 9189 ft 286 kts 15°
2026-05-04 22:16 51.70878 -0.12635 9566 ft 288 kts 15°
2026-05-04 22:16 51.72765 -0.11614 9930 ft 290 kts 26°
2026-05-04 22:17 51.74380 -0.09565 10326 ft 312 kts 50°
2026-05-04 22:17 51.75454 -0.06353 10719 ft 338 kts 73°
2026-05-04 22:17 51.75922 -0.02584 11103 ft 343 kts 82°
2026-05-04 22:17 51.76175 0.01218 11479 ft 345 kts 84°
2026-05-04 22:18 51.76404 0.05100 11853 ft 347 kts 84°
2026-05-04 22:18 51.76660 0.08984 12228 ft 349 kts 83°
2026-05-04 22:18 51.76948 0.12885 12604 ft 351 kts 83°
2026-05-04 22:18 51.77258 0.16810 12981 ft 353 kts 82°
2026-05-04 22:19 51.77578 0.20742 13354 ft 355 kts 82°
2026-05-04 22:19 51.77896 0.24725 13734 ft 357 kts 83°
2026-05-04 22:19 51.78211 0.28720 14111 ft 359 kts 82°
2026-05-04 22:19 51.78530 0.32679 14483 ft 361 kts 82°
2026-05-04 22:20 51.78856 0.36707 14849 ft 363 kts 82°
2026-05-04 22:20 51.79184 0.40782 15237 ft 365 kts 82°
2026-05-04 22:20 51.79507 0.44816 15609 ft 367 kts 83°
2026-05-04 22:20 51.79834 0.48925 15987 ft 369 kts 83°
2026-05-04 22:21 51.80160 0.53048 16363 ft 371 kts 83°
2026-05-04 22:21 51.80487 0.57211 16740 ft 373 kts 83°
2026-05-04 22:21 51.80809 0.61326 17112 ft 375 kts 83°
2026-05-04 22:21 51.81173 0.65513 17482 ft 377 kts 79°
2026-05-04 22:22 51.81786 0.69642 17865 ft 379 kts 76°
2026-05-04 22:22 51.82432 0.73814 18240 ft 381 kts 76°
2026-05-04 22:22 51.83072 0.77984 18619 ft 383 kts 76°
2026-05-04 22:22 51.83713 0.82188 18997 ft 385 kts 76°
2026-05-04 22:23 51.84422 0.86387 19372 ft 387 kts 73°
2026-05-04 22:23 51.85194 0.90531 19741 ft 390 kts 73°
2026-05-04 22:23 51.85988 0.94726 20111 ft 392 kts 73°
2026-05-04 22:23 51.86781 0.98967 20497 ft 394 kts 73°
2026-05-04 22:24 51.87568 1.03240 20874 ft 396 kts 73°
2026-05-04 22:24 51.88349 1.07523 21250 ft 398 kts 73°
2026-05-04 22:24 51.89132 1.11849 21632 ft 401 kts 73°
2026-05-04 22:24 51.89906 1.16143 21998 ft 403 kts 73°
2026-05-04 22:25 51.90703 1.20577 22377 ft 405 kts 73°
2026-05-04 22:25 51.91479 1.24905 22749 ft 407 kts 73°
2026-05-04 22:25 51.92270 1.29324 23126 ft 410 kts 73°
2026-05-04 22:25 51.93066 1.33785 23500 ft 412 kts 73°
2026-05-04 22:26 51.93864 1.38260 23878 ft 415 kts 73°
2026-05-04 22:26 51.94663 1.42761 24253 ft 417 kts 73°
2026-05-04 22:26 51.95470 1.47310 24629 ft 419 kts 74°
2026-05-04 22:26 51.96278 1.51882 25002 ft 422 kts 74°
2026-05-04 22:27 51.97076 1.56408 25373 ft 424 kts 74°
2026-05-04 22:27 51.97889 1.61028 25756 ft 427 kts 74°
2026-05-04 22:27 51.98704 1.65678 26133 ft 429 kts 74°
2026-05-04 22:27 51.99514 1.70337 26507 ft 431 kts 75°
2026-05-04 22:28 52.00271 1.75072 26886 ft 434 kts 76°
2026-05-04 22:28 52.01002 1.79864 27263 ft 437 kts 76°
2026-05-04 22:28 52.01724 1.84622 27633 ft 439 kts 76°
2026-05-04 22:28 52.02464 1.89471 28012 ft 442 kts 76°
2026-05-04 22:29 52.03210 1.94337 28389 ft 444 kts 76°
2026-05-04 22:29 52.03953 1.99174 28760 ft 447 kts 76°
2026-05-04 22:29 52.04707 2.04087 29137 ft 449 kts 76°
2026-05-04 22:29 52.05465 2.09040 29513 ft 452 kts 76°
2026-05-04 22:30 52.06224 2.14015 29884 ft 455 kts 76°
2026-05-04 22:30 52.06987 2.19031 30268 ft 457 kts 76°
2026-05-04 22:30 52.07744 2.24020 30640 ft 460 kts 76°
2026-05-04 22:30 52.08258 2.27423 30887 ft 462 kts 76°
2026-05-04 22:31 52.09275 2.34170 31391 ft 462 kts 76°
2026-05-04 22:31 52.09781 2.37539 31636 ft 462 kts 76°
2026-05-04 22:31 52.10543 2.42620 32015 ft 461 kts 76°
2026-05-04 22:31 52.11302 2.47701 32390 ft 460 kts 76°
2026-05-04 22:32 52.12196 2.52697 32757 ft 460 kts 72°
2026-05-04 22:32 52.13151 2.57669 32869 ft 458 kts 72°
2026-05-04 22:32 52.14088 2.62557 32959 ft 458 kts 72°
2026-05-04 22:33 52.15978 2.72484 33001 ft 458 kts 72°
2026-05-04 22:33 52.17855 2.82422 32999 ft 458 kts 73°
2026-05-04 22:34 52.19709 2.92296 33001 ft 458 kts 73°
2026-05-04 22:34 52.21570 3.02256 32999 ft 458 kts 73°
2026-05-04 22:35 52.23408 3.12147 33000 ft 458 kts 73°
2026-05-04 22:35 52.25190 3.22142 33000 ft 458 kts 77°
2026-05-04 22:36 52.26023 3.32397 33000 ft 458 kts 85°
2026-05-04 22:36 52.26530 3.42784 32999 ft 458 kts 85°
2026-05-04 22:37 52.27041 3.53164 32999 ft 458 kts 85°
2026-05-04 22:37 52.27534 3.63507 33001 ft 458 kts 85°
2026-05-04 22:38 52.28016 3.73853 33000 ft 458 kts 85°
2026-05-04 22:38 52.28492 3.84262 33000 ft 458 kts 85°
2026-05-04 22:39 52.28955 3.94610 33002 ft 458 kts 86°
2026-05-04 22:39 52.29411 4.04992 33000 ft 458 kts 86°
2026-05-04 22:40 52.29855 4.15307 33001 ft 458 kts 86°
2026-05-04 22:40 52.30294 4.25715 33002 ft 458 kts 86°
2026-05-04 22:41 52.30723 4.36132 33000 ft 458 kts 86°
2026-05-04 22:41 52.31141 4.46467 33000 ft 458 kts 86°
2026-05-04 22:42 52.31552 4.56868 33000 ft 458 kts 86°
2026-05-04 22:42 52.31951 4.67215 33001 ft 458 kts 86°
2026-05-04 22:43 52.32344 4.77630 33002 ft 458 kts 86°
2026-05-04 22:43 52.32728 4.88061 33000 ft 458 kts 86°
2026-05-04 22:44 52.33100 4.98388 32999 ft 458 kts 86°
2026-05-04 22:44 52.32852 5.08780 32999 ft 458 kts 101°
2026-05-04 22:45 52.30803 5.18568 32999 ft 457 kts 116°
2026-05-04 22:45 52.26734 5.32684 32998 ft 457 kts 115°
2026-05-04 22:46 52.24034 5.42043 32999 ft 457 kts 115°
2026-05-04 22:46 52.21306 5.51451 33001 ft 458 kts 115°
2026-05-04 22:47 52.18580 5.60808 33000 ft 458 kts 115°
2026-05-04 22:47 52.15837 5.70188 32970 ft 456 kts 116°
2026-05-04 22:48 52.14472 5.74843 32601 ft 453 kts 116°
2026-05-04 22:48 52.13132 5.79402 31892 ft 453 kts 116°
2026-05-04 22:48 52.11766 5.84052 30995 ft 454 kts 116°
2026-05-04 22:48 52.10407 5.88674 29940 ft 452 kts 116°
2026-05-04 22:49 52.09046 5.93292 28924 ft 447 kts 116°
2026-05-04 22:49 52.07710 5.97819 27979 ft 440 kts 116°
2026-05-04 22:49 52.06388 6.02287 27043 ft 434 kts 116°
2026-05-04 22:49 52.05099 6.06633 26112 ft 428 kts 116°
2026-05-04 22:50 52.03817 6.10951 25185 ft 421 kts 116°
2026-05-04 22:50 52.02547 6.15221 24257 ft 415 kts 116°
2026-05-04 22:50 52.01308 6.19376 23342 ft 410 kts 116°
2026-05-04 22:50 52.00072 6.23502 22424 ft 404 kts 116°
2026-05-04 22:51 51.98848 6.27577 21510 ft 398 kts 116°
2026-05-04 22:51 51.97639 6.31597 20602 ft 393 kts 116°
2026-05-04 22:51 51.96447 6.35556 19701 ft 388 kts 116°
2026-05-04 22:51 51.95266 6.39469 18800 ft 383 kts 116°
2026-05-04 22:52 51.94116 6.43276 17918 ft 378 kts 116°
2026-05-04 22:52 51.92969 6.47067 17037 ft 372 kts 116°
2026-05-04 22:52 51.91832 6.50820 16085 ft 367 kts 116°
2026-05-04 22:52 51.90709 6.54492 15153 ft 362 kts 119°
2026-05-04 22:53 51.89207 6.57699 14215 ft 356 kts 137°
2026-05-04 22:53 51.87171 6.59908 13275 ft 350 kts 157°
2026-05-04 22:53 51.84880 6.61196 12363 ft 346 kts 163°
2026-05-04 22:53 51.82607 6.62375 11460 ft 341 kts 163°
2026-05-04 22:54 51.80361 6.63534 10553 ft 336 kts 164°
2026-05-04 22:54 51.78112 6.64336 9940 ft 324 kts 173°
2026-05-04 22:54 51.75957 6.64789 9711 ft 301 kts 173°
2026-05-04 22:54 51.73944 6.65238 9363 ft 288 kts 173°
2026-05-04 22:55 51.71971 6.65685 8959 ft 285 kts 173°
2026-05-04 22:55 51.70093 6.66631 8502 ft 284 kts 150°
2026-05-04 22:55 51.68493 6.68404 8066 ft 283 kts 145°
2026-05-04 22:55 51.66899 6.70245 7636 ft 281 kts 145°
2026-05-04 22:56 51.65296 6.72031 7201 ft 279 kts 147°
2026-05-04 22:56 51.63663 6.73719 6779 ft 277 kts 148°
2026-05-04 22:56 51.62045 6.75387 6346 ft 276 kts 148°
2026-05-04 22:56 51.60426 6.77056 5922 ft 274 kts 148°
2026-05-04 22:57 51.58829 6.78702 5500 ft 272 kts 148°
2026-05-04 22:57 51.57254 6.80323 5092 ft 271 kts 148°
2026-05-04 22:57 51.55651 6.81973 4670 ft 269 kts 148°
2026-05-04 22:57 51.54099 6.83570 4297 ft 266 kts 148°
2026-05-04 22:58 51.52548 6.85167 4197 ft 270 kts 148°
2026-05-04 22:58 51.50970 6.86789 4098 ft 267 kts 148°
2026-05-04 22:58 51.49440 6.88363 4033 ft 254 kts 148°
2026-05-04 22:58 51.48027 6.89819 4030 ft 228 kts 148°
2026-05-04 22:59 51.46761 6.91129 4028 ft 205 kts 148°
2026-05-04 22:59 51.45613 6.92320 4055 ft 186 kts 148°
2026-05-04 22:59 51.44553 6.93423 4038 ft 184 kts 148°
2026-05-04 22:59 51.43487 6.94531 4033 ft 181 kts 148°
2026-05-04 23:00 51.42424 6.95626 4034 ft 182 kts 150°
2026-05-04 23:00 51.41268 6.96431 4036 ft 181 kts 162°
2026-05-04 23:00 51.40071 6.97043 4032 ft 180 kts 171°
2026-05-04 23:00 51.38861 6.96847 4036 ft 176 kts 203°
2026-05-04 23:01 51.37894 6.95828 4029 ft 158 kts 224°
2026-05-04 23:01 51.37169 6.94566 3972 ft 152 kts 232°
2026-05-04 23:01 51.36544 6.93265 3776 ft 145 kts 235°
2026-05-04 23:01 51.35941 6.91972 3425 ft 144 kts 234°
2026-05-04 23:02 51.35338 6.90708 3007 ft 143 kts 234°
2026-05-04 23:02 51.34755 6.89453 2605 ft 142 kts 234°
2026-05-04 23:02 51.34490 6.88902 2452 ft 141 kts 234°
2026-05-04 23:02 51.33938 6.87751 2148 ft 141 kts 234°
2026-05-04 23:03 51.33352 6.86498 1883 ft 140 kts 234°
2026-05-04 23:03 51.32761 6.85258 1614 ft 140 kts 233°
2026-05-04 23:03 51.32154 6.84019 1267 ft 141 kts 233°
2026-05-04 23:03 51.31572 6.82789 944 ft 139 kts 234°
2026-05-04 23:04 51.30987 6.81561 677 ft 138 kts 233°
2026-05-04 23:04 51.30415 6.80357 477 ft 133 kts 234°
2026-05-04 23:04 51.29845 6.79158 324 ft 136 kts 233°
2026-05-04 23:04 51.29278 6.77966 162 ft 133 kts 234°
2026-05-04 23:05 51.28778 6.76912 129 ft 100 kts 233°
2026-05-04 23:05 51.28494 6.76321 120 ft 17 kts 232°
2026-05-04 23:05 51.28406 6.76136 120 ft 24 kts 231°
2026-05-04 23:05 51.28251 6.76048 126 ft 25 kts 169°
2026-05-04 23:06 51.28152 6.76075 124 ft 10 kts 223°
2026-05-04 23:06 51.28086 6.76036 123 ft 12 kts 155°
2026-05-04 23:06 51.27995 6.76048 129 ft 16 kts 181°
2026-05-04 23:06 51.27869 6.76050 122 ft 17 kts 171°
2026-05-04 23:07 51.27843 6.76140 124 ft 10 kts 85°
2026-05-04 23:07 51.27843 6.76236 128 ft 3 kts 85°
2026-05-04 23:07 51.27865 6.76289 126 ft 8 kts 45°
2026-05-04 23:07 51.27889 6.76330 127 ft 4 kts 49°
2026-05-04 23:08 51.27891 6.76334 127 ft 0 kts 49°
2026-05-04 23:08 51.34489 6.88900 2454 ft 231 kts 234°
2026-05-04 23:08 51.34339 6.88587 2358 ft 142 kts 234°
2026-05-04 23:09 51.34489 6.88900 2454 ft 177 kts 234°
2026-05-04 23:09 51.34272 6.88447 2325 ft 142 kts 234°
2026-05-04 23:09 51.33754 6.87362 2067 ft 141 kts 234°
2026-05-04 23:09 51.34191 6.88277 2281 ft 142 kts 234°
2026-05-04 23:10 51.33830 6.87524 2103 ft 141 kts 234°
2026-05-04 23:10 51.33475 6.86763 1943 ft 140 kts 234°
2026-05-04 23:10 51.34186 6.88268 2279 ft 144 kts 234°
2026-05-04 23:10 51.34268 6.88439 2323 ft 142 kts 234°
2026-05-04 23:11 51.33934 6.87742 2147 ft 141 kts 234°
2026-05-04 23:11 51.34166 6.88226 2269 ft 142 kts 233°
2026-05-04 23:11 51.33808 6.87477 2092 ft 141 kts 234°
2026-05-04 23:11 51.32845 6.85429 1649 ft 140 kts 233°
2026-05-04 23:12 51.32487 6.84706 1448 ft 142 kts 233°
2026-05-04 23:12 51.32131 6.83971 1256 ft 140 kts 234°
2026-05-04 23:12 51.31789 6.83254 1058 ft 139 kts 234°
2026-05-04 23:12 51.31459 6.82548 886 ft 139 kts 234°
2026-05-04 23:13 51.31123 6.81842 732 ft 138 kts 233°
2026-05-04 23:13 51.29831 6.79130 320 ft 136 kts 233°
2026-05-04 23:13 51.29823 6.79113 319 ft 227 kts 233°
2026-05-04 23:14 51.29538 6.78515 232 ft 135 kts 234°
2026-05-04 23:14 51.29180 6.77758 149 ft 130 kts 234°
2026-05-04 23:14 51.28827 6.77016 126 ft 106 kts 233°